| time (UTC) | temp F | wind direction | speed MPH | gust MPH | rain 1hr in | rain 24hr in | rain mn in | humidity % | barometer mb |
| 20260510021009 | 77 | 295 | 1.0 | 3.0 | 0.00 | 0.00 | 0.00 | 83 | 1012.4 |
| 20260510020005 | 77 | 275 | 1.0 | 2.0 | 0.00 | 0.00 | 0.00 | 83 | 1012.2 |
| 20260510015005 | 77 | 30 | 0.0 | 3.0 | 0.00 | 0.00 | 0.00 | 83 | 1012.2 |
| 20260510014006 | 77 | 71 | 1.0 | 3.0 | 0.00 | 0.00 | 0.00 | 82 | 1012.3 |
| 20260510013005 | 78 | 154 | 1.0 | 5.0 | 0.00 | 0.00 | 0.00 | 81 | 1012.4 |
| 20260510012007 | 78 | 135 | 1.0 | 3.0 | 0.00 | 0.00 | 0.00 | 79 | 1012.5 |
| 20260510011005 | 79 | 172 | 2.0 | 7.0 | 0.00 | 0.00 | 0.00 | 78 | 1012.0 |
| 20260510010005 | 79 | 77 | 2.0 | 3.0 | 0.00 | 0.00 | 0.00 | 76 | 1010.9 |
| 20260510005007 | 80 | 16 | 1.0 | 5.0 | 0.00 | 0.00 | 0.00 | 76 | 1010.7 |
| 20260510004007 | 80 | 335 | 3.0 | 9.0 | 0.00 | 0.00 | 0.00 | 75 | 1010.6 |
| 20260510003007 | 80 | 341 | 6.0 | 13.0 | 0.00 | 0.00 | 0.00 | 74 | 1010.5 |
| 20260510002006 | 81 | 0 | 4.0 | 12.0 | 0.00 | 0.00 | 0.00 | 71 | 1010.4 |
| 20260510001006 | 83 | 339 | 5.0 | 12.0 | 0.00 | 0.00 | 0.00 | 67 | 1010.5 |
| 20260510000005 | 84 | 340 | 6.0 | 13.0 | 0.00 | 0.00 | 0.00 | 63 | 1010.4 |
| 20260509235006 | 85 | 314 | 5.0 | 12.0 | 0.00 | 0.00 | 0.00 | 61 | 1010.2 |
| 20260509234006 | 86 | 286 | 2.0 | 5.0 | 0.00 | 0.00 | 0.00 | 69 | 1009.7 |
| 20260509233005 | 86 | 104 | 2.0 | 6.0 | 0.00 | 0.00 | 0.00 | 68 | 1009.2 |
| 20260509232006 | 86 | 102 | 3.0 | 9.0 | 0.00 | 0.00 | 0.00 | 67 | 1009.1 |
| 20260509231006 | 87 | 110 | 2.0 | 6.0 | 0.00 | 0.00 | 0.00 | 67 | 1008.8 |
| 20260509230005 | 89 | 102 | 5.0 | 7.0 | 0.00 | 0.00 | 0.00 | 64 | 1008.9 |
| 20260509225005 | 91 | 103 | 5.0 | 12.0 | 0.00 | 0.00 | 0.00 | 59 | 1008.8 |
| 20260509224005 | 93 | 167 | 2.0 | 6.0 | 0.00 | 0.00 | 0.00 | 44 | 1008.7 |
| 20260509223005 | 93 | 196 | 3.0 | 6.0 | 0.00 | 0.00 | 0.00 | 41 | 1008.7 |
| 20260509222006 | 93 | 233 | 1.0 | 7.0 | 0.00 | 0.00 | 0.00 | 43 | 1008.8 |
| 20260509221005 | 94 | 178 | 2.0 | 5.0 | 0.00 | 0.00 | 0.00 | 41 | 1008.7 |
| 20260509220006 | 94 | 157 | 2.0 | 6.0 | 0.00 | 0.00 | 0.00 | 42 | 1008.8 |
| 20260509215007 | 94 | 175 | 3.0 | 6.0 | 0.00 | 0.00 | 0.00 | 40 | 1008.8 |
| 20260509214006 | 95 | 144 | 1.0 | 7.0 | 0.00 | 0.00 | 0.00 | 41 | 1008.7 |
| 20260509213007 | 95 | 199 | 4.0 | 10.0 | 0.00 | 0.00 | 0.00 | 40 | 1008.9 |
| 20260509212006 | 94 | 223 | 3.0 | 8.0 | 0.00 | 0.00 | 0.00 | 39 | 1008.7 |
| 20260509211007 | 94 | 148 | 2.0 | 7.0 | 0.00 | 0.00 | 0.00 | 42 | 1008.9 |
| 20260509205007 | 94 | 171 | 4.0 | 9.0 | 0.00 | 0.00 | 0.00 | 40 | 1008.9 |
| 20260509204006 | 94 | 206 | 5.0 | 8.0 | 0.00 | 0.00 | 0.00 | 39 | 1009.0 |
| 20260509203006 | 94 | 136 | 4.0 | 10.0 | 0.00 | 0.00 | 0.00 | 40 | 1009.1 |
| 20260509202006 | 94 | 202 | 3.0 | 12.0 | 0.00 | 0.00 | 0.00 | 40 | 1009.1 |
| 20260509201006 | 94 | 134 | 3.0 | 10.0 | 0.00 | 0.00 | 0.00 | 36 | 1009.3 |
| 20260509195006 | 94 | 180 | 4.0 | 10.0 | 0.00 | 0.00 | 0.00 | 39 | 1009.5 |
| 20260509194006 | 94 | 218 | 3.0 | 12.0 | 0.00 | 0.00 | 0.00 | 39 | 1009.4 |
| 20260509193006 | 94 | 210 | 3.0 | 7.0 | 0.00 | 0.00 | 0.00 | 39 | 1009.6 |
| 20260509192006 | 94 | 162 | 3.0 | 14.0 | 0.00 | 0.00 | 0.00 | 41 | 1009.6 |
| 20260509191005 | 95 | 218 | 5.0 | 14.0 | 0.00 | 0.00 | 0.00 | 40 | 1010.0 |
| 20260509190007 | 95 | 199 | 2.0 | 9.0 | 0.00 | 0.00 | 0.00 | 40 | 1010.1 |
| 20260509185006 | 94 | 268 | 3.0 | 12.0 | 0.00 | 0.00 | 0.00 | 42 | 1010.2 |
| 20260509182006 | 93 | 189 | 5.0 | 13.0 | 0.00 | 0.00 | 0.00 | 43 | 1010.4 |
| 20260509181007 | 93 | 199 | 5.0 | 13.0 | 0.00 | 0.00 | 0.00 | 44 | 1010.4 |
| 20260509180005 | 93 | 138 | 2.0 | 12.0 | 0.00 | 0.00 | 0.00 | 51 | 1010.6 |
| 20260509174005 | 92 | 196 | 4.0 | 12.0 | 0.00 | 0.00 | 0.00 | 47 | 1010.7 |
| 20260509173006 | 92 | 204 | 5.0 | 14.0 | 0.00 | 0.00 | 0.00 | 45 | 1010.8 |
| 20260509172005 | 92 | 170 | 4.0 | 13.0 | 0.00 | 0.00 | 0.00 | 49 | 1010.9 |
| 20260509171006 | 91 | 171 | 3.0 | 10.0 | 0.00 | 0.00 | 0.00 | 47 | 1010.9 |
| 20260509170006 | 92 | 150 | 5.0 | 12.0 | 0.00 | 0.00 | 0.00 | 47 | 1011.0 |
| 20260509165007 | 91 | 198 | 3.0 | 13.0 | 0.00 | 0.00 | 0.00 | 51 | 1011.0 |
| 20260509164006 | 91 | 200 | 3.0 | 12.0 | 0.00 | 0.00 | 0.00 | 52 | 1011.2 |
| 20260509163006 | 90 | 226 | 5.0 | 14.0 | 0.00 | 0.00 | 0.00 | 51 | 1011.4 |
| 20260509155007 | 89 | 248 | 4.0 | 12.0 | 0.00 | 0.00 | 0.00 | 56 | 1011.7 |
| 20260509153006 | 87 | 154 | 5.0 | 14.0 | 0.00 | 0.00 | 0.00 | 60 | 1012.0 |
| 20260509152006 | 87 | 240 | 5.0 | 12.0 | 0.00 | 0.00 | 0.00 | 62 | 1012.2 |
| 20260509151006 | 86 | 224 | 7.0 | 13.0 | 0.00 | 0.00 | 0.00 | 63 | 1012.3 |
| 20260509150005 | 87 | 155 | 4.0 | 14.0 | 0.00 | 0.00 | 0.00 | 63 | 1012.2 |
| 20260509145007 | 86 | 150 | 4.0 | 12.0 | 0.00 | 0.00 | 0.00 | 67 | 1012.2 |
| 20260509144007 | 86 | 201 | 3.0 | 9.0 | 0.00 | 0.00 | 0.00 | 63 | 1012.2 |
| 20260509143006 | 85 | 206 | 5.0 | 10.0 | 0.00 | 0.00 | 0.00 | 65 | 1012.2 |
| 20260509142006 | 85 | 171 | 3.0 | 7.0 | 0.00 | 0.00 | 0.00 | 67 | 1012.2 |
| 20260509141005 | 84 | 211 | 3.0 | 9.0 | 0.00 | 0.00 | 0.00 | 70 | 1012.2 |
| 20260509140006 | 84 | 237 | 1.0 | 7.0 | 0.00 | 0.00 | 0.00 | 72 | 1012.1 |
| 20260509135006 | 82 | 199 | 3.0 | 9.0 | 0.00 | 0.00 | 0.00 | 73 | 1012.1 |
| 20260509134007 | 82 | 162 | 3.0 | 7.0 | 0.00 | 0.00 | 0.00 | 72 | 1012.1 |
| 20260509133007 | 82 | 236 | 2.0 | 6.0 | 0.00 | 0.00 | 0.00 | 74 | 1012.3 |
| 20260509132006 | 81 | 143 | 2.0 | 6.0 | 0.00 | 0.00 | 0.00 | 75 | 1012.3 |
| 20260509131006 | 80 | 204 | 3.0 | 6.0 | 0.00 | 0.00 | 0.00 | 78 | 1012.3 |
| 20260509130005 | 80 | 205 | 2.0 | 5.0 | 0.00 | 0.00 | 0.00 | 80 | 1012.1 |
| 20260509125007 | 79 | 128 | 1.0 | 3.0 | 0.00 | 0.00 | 0.00 | 82 | 1011.9 |
| 20260509123006 | 76 | 223 | 2.0 | 3.0 | 0.00 | 0.00 | 0.00 | 83 | 1012.0 |
| 20260509122007 | 75 | 239 | 1.0 | 5.0 | 0.00 | 0.00 | 0.00 | 82 | 1011.9 |
| 20260509121008 | 75 | 166 | 2.0 | 3.0 | 0.00 | 0.00 | 0.00 | 79 | 1011.8 |
| 20260509120005 | 73 | 202 | 0.0 | 3.0 | 0.00 | 0.00 | 0.00 | 71 | 1011.9 |
| 20260509115007 | 73 | 219 | 1.0 | 3.0 | 0.00 | 0.00 | 0.00 | 67 | 1011.8 |
| 20260509114005 | 73 | 227 | 1.0 | 2.0 | 0.00 | 0.00 | 0.00 | 66 | 1011.8 |
| 20260509113006 | 72 | 271 | 1.0 | 2.0 | 0.00 | 0.00 | 0.00 | 66 | 1011.7 |
| 20260509112005 | 72 | 161 | 0.0 | 1.0 | 0.00 | 0.00 | 0.00 | 66 | 1011.6 |
| 20260509111006 | 72 | 228 | 0.0 | 1.0 | 0.00 | 0.00 | 0.00 | 66 | 1011.5 |
| 20260509104006 | 72 | 180 | 0.0 | 1.0 | 0.00 | 0.00 | 0.00 | 66 | 1011.2 |
| 20260509103005 | 71 | 257 | 1.0 | 2.0 | 0.00 | 0.00 | 0.00 | 66 | 1011.1 |
| 20260509101006 | 71 | 88 | 0.0 | 1.0 | 0.00 | 0.00 | 0.00 | 67 | 1010.9 |
| 20260509100007 | 70 | 80 | 0.0 | 0.0 | 0.00 | 0.00 | 0.00 | 69 | 1010.9 |
| 20260509093005 | 70 | 80 | 1.0 | 1.0 | 0.00 | 0.00 | 0.00 | 71 | 1010.9 |
| 20260509092006 | 71 | 80 | 0.0 | 0.0 | 0.00 | 0.00 | 0.00 | 70 | 1011.0 |
| 20260509091007 | 71 | 80 | 0.0 | 1.0 | 0.00 | 0.00 | 0.00 | 69 | 1010.9 |
| 20260509090007 | 71 | 80 | 1.0 | 2.0 | 0.00 | 0.00 | 0.00 | 70 | 1011.0 |
| 20260509085005 | 71 | 38 | 1.0 | 1.0 | 0.00 | 0.00 | 0.00 | 71 | 1011.2 |
| 20260509084007 | 71 | 38 | 0.0 | 1.0 | 0.00 | 0.00 | 0.00 | 71 | 1011.2 |
| 20260509083007 | 71 | 38 | 0.0 | 0.0 | 0.00 | 0.00 | 0.00 | 71 | 1011.2 |
| 20260509082005 | 70 | 16 | 0.0 | 0.0 | 0.00 | 0.00 | 0.00 | 74 | 1011.3 |
| 20260509081007 | 71 | 16 | 0.0 | 0.0 | 0.00 | 0.00 | 0.00 | 74 | 1011.1 |
| 20260509080006 | 71 | 16 | 0.0 | 0.0 | 0.00 | 0.00 | 0.00 | 75 | 1011.2 |
| 20260509075005 | 71 | 355 | 0.0 | 0.0 | 0.00 | 0.00 | 0.00 | 74 | 1011.3 |
| 20260509074006 | 71 | 355 | 0.0 | 0.0 | 0.00 | 0.00 | 0.00 | 74 | 1011.4 |
| 20260509073005 | 71 | 355 | 0.0 | 1.0 | 0.00 | 0.00 | 0.00 | 76 | 1011.5 |
| 20260509071006 | 72 | 355 | 0.0 | 0.0 | 0.00 | 0.00 | 0.00 | 79 | 1011.6 |
| 20260509070006 | 72 | 355 | 0.0 | 0.0 | 0.00 | 0.00 | 0.00 | 78 | 1011.6 |
| 20260509065006 | 72 | 355 | 0.0 | 0.0 | 0.00 | 0.00 | 0.00 | 77 | 1011.7 |
| 20260509064006 | 72 | 355 | 0.0 | 0.0 | 0.00 | 0.00 | 0.00 | 78 | 1011.7 |
| 20260509063006 | 73 | 355 | 0.0 | 1.0 | 0.00 | 0.00 | 0.00 | 80 | 1011.7 |
| 20260509062005 | 73 | 355 | 0.0 | 1.0 | 0.00 | 0.00 | 0.00 | 79 | 1011.8 |
| 20260509060005 | 74 | 355 | 0.0 | 1.0 | 0.00 | 0.00 | 0.00 | 80 | 1012.0 |
| 20260509055006 | 74 | 321 | 1.0 | 2.0 | 0.00 | 0.00 | 0.00 | 81 | 1012.2 |
| 20260509054006 | 74 | 286 | 1.0 | 2.0 | 0.00 | 0.00 | 0.00 | 81 | 1012.2 |
| 20260509053008 | 74 | 275 | 0.0 | 2.0 | 0.00 | 0.00 | 0.00 | 81 | 1012.1 |
| 20260509052006 | 74 | 277 | 2.0 | 3.0 | 0.00 | 0.00 | 0.00 | 82 | 1012.3 |
| 20260509050006 | 75 | 275 | 2.0 | 5.0 | 0.00 | 0.00 | 0.00 | 79 | 1012.5 |
| 20260509045008 | 75 | 232 | 2.0 | 6.0 | 0.00 | 0.00 | 0.00 | 77 | 1012.6 |
| 20260509044005 | 74 | 233 | 1.0 | 6.0 | 0.00 | 0.00 | 0.00 | 77 | 1012.8 |
| 20260509043006 | 74 | 261 | 2.0 | 3.0 | 0.00 | 0.00 | 0.00 | 76 | 1012.7 |
| 20260509042007 | 74 | 305 | 1.0 | 3.0 | 0.00 | 0.00 | 0.00 | 78 | 1012.4 |
| 20260509040005 | 74 | 172 | 0.0 | 1.0 | 0.00 | 0.00 | 0.00 | 79 | 1012.2 |
| 20260509031006 | 75 | 94 | 1.0 | 2.0 | 0.00 | 0.00 | 0.00 | 81 | 1012.1 |
| 20260509030006 | 75 | 105 | 0.0 | 2.0 | 0.00 | 0.00 | 0.00 | 82 | 1012.1 |
| 20260509025006 | 75 | 100 | 1.0 | 3.0 | 0.00 | 0.00 | 0.00 | 82 | 1012.0 |
| 20260509024006 | 75 | 78 | 0.0 | 2.0 | 0.00 | 0.00 | 0.00 | 83 | 1012.0 |
| 20260509023006 | 76 | 141 | 0.0 | 2.0 | 0.00 | 0.00 | 0.00 | 83 | 1012.0 |
| 20260509022007 | 76 | 117 | 0.0 | 1.0 | 0.00 | 0.00 | 0.00 | 83 | 1012.0 |